[[{"header":{"parameterUnit":"m.s-1","parameterCategory":1,"la1":30.2991,"la2":30.254,"lo1":-89.0895,"lo2":-89.0444,"dy":0.0017,"dx":0.0017,"nx":28,"ny":28,"refTime":"2024-12-23T03:00:00:Z","depth":0,"parameterNumber":2,"parameterNumberName":"U-component_of_WINDS"},"data":[0,0,0,0,0,0,0,0,0,0,0,0,0,0,0,0,0,0,0,0,0,0,0,0,0,0,0,0,0,0,0,0,0,0,0,0,0,0,0,0,0,0,0,0,0,0,0,0,0,0,0,0,0,0,0,0,0,0,-3.1798,-3.1798,0,-3.1842,-3.1843,-3.1843,-3.1717,-3.1713,-3.1709,-3.1705,-3.1753,-3.1757,-3.1762,0,0,0,0,0,0,0,0,0,0,0,0,0,-3.1604,-3.1608,-3.1797,-3.1798,-3.1799,-3.1842,-3.1843,-3.1843,-3.1717,-3.1713,-3.1708,-3.1704,-3.1751,-3.1757,-3.1763,0,0,0,0,0,0,0,0,0,0,0,0,0,-3.1672,-3.1609,-3.1797,-3.1741,-3.1736,-3.1842,-3.1843,-3.1843,-3.1718,-3.1713,-3.1707,-3.1701,-3.1749,-3.1756,-3.1764,-3.1926,0,0,-3.1786,-3.1789,0,0,0,0,0,0,0,0,-3.1669,-3.168,-3.1749,-3.1745,-3.174,-3.1768,-3.1791,-3.1871,-3.172,-3.1725,-3.1705,-3.1698,-3.1763,-3.1768,-3.179,-3.1928,-3.193,-3.1787,-3.1791,-3.1794,-3.1796,0,0,0,0,0,0,0,-3.1664,-3.1677,-3.1815,-3.175,-3.1745,-3.1714,-3.1717,-3.1806,-3.1776,-3.1724,-3.1715,-3.1722,-3.1759,-3.1783,-3.179,-3.1931,-3.1786,-3.1793,-3.1798,-3.18,-3.2204,-3.221,0,0,0,0,0,0,-3.1666,-3.1674,-3.1814,-3.1816,-3.1689,-3.1722,-3.1725,-3.1765,-3.1775,-3.1771,-3.1727,-3.1716,-3.1773,-3.1781,-3.1791,-3.1982,-3.1794,-3.1801,-3.1805,-3.2198,-3.2206,-3.2213,0,0,0,0,0,0,-3.1663,-3.168,-3.1812,-3.1743,-3.1757,-3.1731,-3.1777,-3.1769,-3.1792,-3.1777,-3.1771,-3.1757,-3.1769,-3.1781,-3.1893,-3.1982,-3.1804,-3.1811,-3.2191,-3.22,-3.2209,-3.2365,0,0,0,0,0,0,-3.1658,-3.168,-3.1741,-3.1745,-3.1761,-3.1914,-3.1782,-3.1774,-3.1805,-3.1791,-3.1804,-3.18,-3.1765,-3.1883,-3.1901,-3.1989,-3.1817,-3.2183,-3.2195,-3.2206,-3.2352,-3.2379,-3.2402,0,0,0,0,0,-3.1651,-3.1784,-3.1745,-3.1762,-3.1838,-3.1919,-3.1928,-3.1885,-3.1813,-3.1875,-3.1864,-3.18,-3.1969,-3.1895,-3.1914,-3.2006,-3.2177,-3.2191,-3.2205,-3.2341,-3.2373,-3.2401,0,0,0,0,0,0,-3.1792,-3.1783,-3.174,-3.1878,-3.19,-3.1897,-3.1974,-3.1921,-3.1965,-3.195,-3.1895,-3.1899,-3.2022,-3.2025,-3.1943,-3.2163,-3.206,-3.2079,-3.2157,-3.2188,-3.2212,-3.221,-3.1823,0,0,0,0,0,-3.1839,-3.1905,-3.1894,-3.2017,-3.203,-3.2001,-3.2034,-3.1999,-3.202,-3.2029,-3.2027,-3.205,-3.2108,-3.2148,-3.2201,-3.2351,-3.2352,-3.2423,-3.2448,-3.2469,-3.2486,-3.2565,-3.2597,-3.2259,-3.2259,-3.2259,0,0,-3.1937,-3.194,-3.1986,-3.2045,-3.2058,-3.2128,-3.2009,-3.2089,-3.214,-3.2041,-3.2147,-3.2147,-3.2169,-3.2301,-3.2359,-3.2307,-3.2579,-3.2487,-3.2503,-3.2509,-3.2583,-3.2615,-3.2644,-3.2269,-3.2267,-3.2266,0,0,-3.2151,-3.216,-3.2263,-3.2278,-3.2299,-3.2278,-3.2303,-3.2309,-3.2304,-3.2409,-3.2336,-3.2397,-3.2498,-3.2517,-3.254,-3.276,-3.2702,-3.2779,-3.2909,-3.2987,-3.3014,-3.3037,-3.3116,-3.3145,-3.2796,-3.2796,-3.2796,0,-3.227,-3.2373,-3.2323,-3.2407,-3.2435,-3.2348,-3.2451,-3.2469,-3.2506,-3.2528,-3.2469,-3.2594,-3.2603,-3.2738,-3.2792,-3.2813,-3.284,-3.2778,-3.3014,-3.3037,-3.3058,-3.3132,-3.3162,-3.2805,-3.2804,-3.2803,-3.2802,0,-3.2518,-3.2591,-3.2671,-3.2709,-3.2746,-3.284,-3.2804,-3.2848,-3.2809,-3.2795,-3.2903,-3.291,-3.2962,-3.2991,-3.2955,-3.3121,-3.3088,-3.3023,-3.2919,-3.31,-3.3169,-3.3197,-3.2818,-3.2815,-3.2812,-3.281,0,0,-3.2824,-3.2832,-3.2862,-3.2878,-3.2894,-3.2949,-3.3039,-3.3089,-3.3128,-3.3156,-3.323,-3.3317,-3.3256,-3.3282,-3.3247,-3.3315,-3.3489,-3.324,-3.324,-3.3287,-3.3673,-3.3723,-3.3757,-3.345,-3.3455,-3.3459,-3.3671,0,-3.3036,-3.3189,-3.3146,-3.3299,-3.3365,-3.3282,-3.336,-3.3378,-3.3367,-3.3421,-3.3408,-3.3471,-3.3386,-3.3401,-3.3465,-3.3455,-3.3566,-3.3438,-3.3519,-3.3522,-3.3517,-3.3793,-3.3846,-3.4046,-3.3698,-3.3703,-3.3706,0,-3.3303,-3.3341,-3.3501,-3.3505,-3.3531,-3.3602,-3.3645,-3.3698,-3.3717,-3.3703,-3.3732,-3.3682,-3.377,-3.3665,-3.3785,-3.37,-3.373,-3.3729,-3.3736,-3.3743,-3.3626,-3.3808,-3.4109,-3.4139,-3.3748,-3.3744,-3.3741,0,-3.3511,-3.3602,-3.3709,-3.3725,-3.3733,-3.3784,-3.379,-3.3803,-3.3836,-3.3873,-3.3893,-3.3941,-3.3967,-3.4005,-3.3969,-3.3895,-3.4095,-3.3987,-3.4087,-3.4088,-3.4134,-3.4132,-3.4445,-3.4153,-3.4152,-3.4152,-3.4151,0,-3.3752,-3.3853,-3.3802,-3.3869,-3.3979,-3.3928,-3.404,-3.4036,-3.4048,-3.4112,-3.4042,-3.4104,-3.4052,-3.411,-3.4082,-3.4186,-3.4198,-3.419,-3.4182,-3.4197,-3.4198,-3.4217,-3.4202,-3.4159,-3.4158,-3.4156,-3.4155,0,-3.4003,-3.3973,-3.4084,-3.4082,-3.4083,-3.4165,-3.4163,-3.4224,-3.4207,-3.4289,-3.4305,-3.4279,-3.4342,-3.431,-3.4376,-3.4357,-3.4492,-3.4464,-3.4486,-3.4479,-3.4581,-3.4572,-3.4918,-3.496,-3.464,-3.4643,-3.4646,0,-3.4159,-3.4235,-3.424,-3.4278,-3.4288,-3.4349,-3.4382,-3.4335,-3.4372,-3.4398,-3.4456,-3.4514,-3.4557,-3.4662,-3.4649,-3.4699,-3.4673,-3.479,-3.468,-3.4693,-3.4675,-3.4671,-3.4679,-3.4813,-3.4817,-3.482,-3.4822,0,-3.444,-3.4421,-3.4471,-3.4516,-3.4556,-3.459,-3.4617,-3.4652,-3.4605,-3.465,-3.4713,-3.4747,-3.4814,-3.4872,-3.4915,-3.492,-3.4865,-3.4857,-3.4883,-3.4899,-3.4909,-3.4905,-3.4547,-3.4849,-3.4847,-3.4845,-3.4843,-3.4842,-3.4649,-3.4712,-3.4725,-3.4783,-3.4798,-3.4825,-3.4882,-3.4871,-3.4923,-3.4974,-3.4942,-3.5017,-3.5033,-3.5085,-3.5098,-3.5156,-3.5109,-3.5147,-3.5156,-3.5166,-3.518,-3.4899,-3.5163,-3.5162,-3.5162,-3.5161,-3.516,0,-3.4926,-3.493,-3.4983,-3.5023,-3.5069,-3.501,-3.5037,-3.5079,-3.5146,-3.5165,-3.5208,-3.5281,-3.5337,-3.5328,-3.5378,-3.5426,-3.5402,-3.5441,-3.5438,-3.544,-3.5219,-3.5192,-3.546,-3.546,-3.546,-3.546,-3.546,-3.546,-3.5076,-3.518,-3.5162,-3.5273,-3.5276,-3.5348,-3.5368,-3.5393,-3.5408,-3.5492,-3.5537,-3.553,-3.5538,-3.5589,-3.5637,-3.5633,-3.5655,-3.5704,-3.5691,-3.5485,-3.5455,-3.5427,-3.5401,-3.5709,-3.5709,-3.5906,-3.5908,-3.5909]},{"header":{"parameterUnit":"m.s-1","parameterCategory":1,"la1":30.2991,"la2":30.254,"lo1":-89.0895,"lo2":-89.0444,"dy":0.0017,"dx":0.0017,"nx":28,"ny":28,"refTime":"2024-12-23T03:00:00:Z","depth":0,"parameterNumber":3,"parameterNumberName":"V-component_of_WINDS"},"data":[0,0,0,0,0,0,0,0,0,0,0,0,0,0,0,0,0,0,0,0,0,0,0,0,0,0,0,0,0,0,0,0,0,0,0,0,0,0,0,0,0,0,0,0,0,0,0,0,0,0,0,0,0,0,0,0,0,0,-2.1711,-2.1711,0,-2.1723,-2.1723,-2.1724,-2.1722,-2.1722,-2.1722,-2.1722,-2.1733,-2.1733,-2.1734,0,0,0,0,0,0,0,0,0,0,0,0,0,-2.1682,-2.1683,-2.1711,-2.1711,-2.1711,-2.1723,-2.1723,-2.1724,-2.1722,-2.1722,-2.1722,-2.1722,-2.1733,-2.1733,-2.1734,0,0,0,0,0,0,0,0,0,0,0,0,0,-2.1695,-2.1683,-2.1711,-2.1712,-2.1712,-2.1723,-2.1723,-2.1724,-2.1723,-2.1722,-2.1722,-2.1722,-2.1732,-2.1733,-2.1734,-2.1743,0,0,-2.1736,-2.1736,0,0,0,0,0,0,0,0,-2.1694,-2.1696,-2.1712,-2.1712,-2.1712,-2.1721,-2.1717,-2.173,-2.1723,-2.1719,-2.1722,-2.1722,-2.1729,-2.173,-2.1733,-2.1744,-2.1744,-2.1736,-2.1736,-2.1737,-2.1737,0,0,0,0,0,0,0,-2.1693,-2.1695,-2.1716,-2.1712,-2.1712,-2.1711,-2.1712,-2.172,-2.1725,-2.1719,-2.1719,-2.172,-2.1729,-2.1732,-2.1733,-2.1745,-2.1736,-2.1736,-2.1737,-2.1737,-2.1762,-2.1762,0,0,0,0,0,0,-2.1692,-2.1694,-2.1715,-2.1716,-2.1702,-2.1711,-2.1713,-2.1718,-2.1725,-2.1726,-2.1721,-2.172,-2.1731,-2.1732,-2.1733,-2.1744,-2.1737,-2.1737,-2.1738,-2.1761,-2.1762,-2.1762,0,0,0,0,0,0,-2.1692,-2.1694,-2.1715,-2.1705,-2.1708,-2.1712,-2.1718,-2.1719,-2.1722,-2.1726,-2.1727,-2.1723,-2.1731,-2.1732,-2.174,-2.1744,-2.1738,-2.1738,-2.1761,-2.1761,-2.1762,-2.1765,0,0,0,0,0,0,-2.1691,-2.1694,-2.1699,-2.1705,-2.1708,-2.1723,-2.1719,-2.1719,-2.1723,-2.1723,-2.1729,-2.1729,-2.1731,-2.1739,-2.1741,-2.1745,-2.1739,-2.1761,-2.1761,-2.1762,-2.1765,-2.1766,-2.1766,0,0,0,0,0,-2.169,-2.1699,-2.1699,-2.1702,-2.1715,-2.1723,-2.1725,-2.1727,-2.1724,-2.1728,-2.173,-2.1729,-2.1743,-2.174,-2.1742,-2.1746,-2.1761,-2.1761,-2.1762,-2.1765,-2.1766,-2.1766,0,0,0,0,0,0,-2.1693,-2.17,-2.17,-2.1712,-2.1717,-2.1723,-2.1729,-2.1728,-2.1733,-2.1733,-2.1734,-2.1735,-2.1743,-2.1745,-2.1742,-2.1755,-2.1751,-2.1752,-2.1753,-2.1754,-2.1755,-2.1754,-2.1739,0,0,0,0,0,-2.1696,-2.1703,-2.1708,-2.1718,-2.1721,-2.1724,-2.1728,-2.1729,-2.1734,-2.1735,-2.1739,-2.1742,-2.1747,-2.1751,-2.1756,-2.1765,-2.1765,-2.1768,-2.1769,-2.177,-2.1771,-2.1773,-2.1774,-2.1764,-2.1764,-2.1764,0,0,-2.17,-2.1705,-2.171,-2.1719,-2.1723,-2.1729,-2.1726,-2.1733,-2.1737,-2.1736,-2.1744,-2.1746,-2.175,-2.1758,-2.1762,-2.1761,-2.1773,-2.177,-2.1771,-2.1771,-2.1774,-2.1775,-2.1776,-2.1764,-2.1764,-2.1764,0,0,-2.1712,-2.1717,-2.1725,-2.1728,-2.1734,-2.1736,-2.1737,-2.1743,-2.1744,-2.1752,-2.1751,-2.1755,-2.1764,-2.1766,-2.1769,-2.1778,-2.1777,-2.178,-2.1784,-2.1787,-2.1788,-2.1788,-2.179,-2.1791,-2.178,-2.178,-2.178,0,-2.1717,-2.1727,-2.1729,-2.1736,-2.1739,-2.1738,-2.1745,-2.1748,-2.1755,-2.1757,-2.1755,-2.1765,-2.1768,-2.1775,-2.1777,-2.178,-2.1781,-2.1779,-2.1787,-2.1788,-2.1789,-2.1791,-2.1792,-2.1781,-2.1781,-2.1781,-2.1781,0,-2.1732,-2.1739,-2.1744,-2.1751,-2.1755,-2.1762,-2.1763,-2.1766,-2.1766,-2.1767,-2.1774,-2.1777,-2.1782,-2.1783,-2.1784,-2.179,-2.1789,-2.1787,-2.1784,-2.179,-2.1792,-2.1793,-2.1781,-2.1781,-2.1781,-2.1781,0,0,-2.1748,-2.1753,-2.1755,-2.1757,-2.1762,-2.1767,-2.1772,-2.1777,-2.1779,-2.1783,-2.1787,-2.1794,-2.1791,-2.1794,-2.1794,-2.1797,-2.1802,-2.1794,-2.1794,-2.1795,-2.1808,-2.1809,-2.181,-2.1801,-2.1801,-2.1801,-2.1807,0,-2.1759,-2.177,-2.177,-2.178,-2.1785,-2.1783,-2.1787,-2.179,-2.1791,-2.1794,-2.1795,-2.1799,-2.1797,-2.1798,-2.18,-2.1801,-2.1804,-2.18,-2.1803,-2.1803,-2.1802,-2.1811,-2.1812,-2.1818,-2.1808,-2.1808,-2.1808,0,-2.1774,-2.1778,-2.1788,-2.179,-2.1792,-2.1796,-2.1799,-2.1803,-2.1805,-2.1805,-2.1807,-2.1806,-2.181,-2.1807,-2.1811,-2.1808,-2.1809,-2.1809,-2.181,-2.181,-2.1806,-2.181,-2.182,-2.182,-2.1809,-2.1809,-2.1809,0,-2.1782,-2.179,-2.1797,-2.1798,-2.1801,-2.1804,-2.1805,-2.1807,-2.1809,-2.1811,-2.1812,-2.1815,-2.1816,-2.1818,-2.1817,-2.1815,-2.1821,-2.1818,-2.182,-2.182,-2.1822,-2.1822,-2.1831,-2.1823,-2.1823,-2.1823,-2.1823,0,-2.1795,-2.18,-2.18,-2.1804,-2.181,-2.1809,-2.1815,-2.1815,-2.1817,-2.182,-2.1818,-2.182,-2.1819,-2.1821,-2.182,-2.1823,-2.1824,-2.1823,-2.1823,-2.1823,-2.1823,-2.1824,-2.1823,-2.1823,-2.1823,-2.1823,-2.1823,0,-2.1805,-2.1806,-2.1812,-2.1814,-2.1814,-2.1818,-2.1819,-2.1822,-2.1822,-2.1826,-2.1826,-2.1826,-2.1828,-2.1827,-2.1829,-2.1829,-2.1832,-2.1832,-2.1832,-2.1831,-2.1834,-2.1833,-2.1843,-2.1844,-2.1836,-2.1836,-2.1836,0,-2.1813,-2.1817,-2.1819,-2.1821,-2.1822,-2.1825,-2.1827,-2.1826,-2.1828,-2.1829,-2.1831,-2.1833,-2.1835,-2.1838,-2.1837,-2.1838,-2.1837,-2.184,-2.1837,-2.1837,-2.1836,-2.1836,-2.1835,-2.1841,-2.1841,-2.1841,-2.1841,0,-2.1826,-2.1825,-2.1828,-2.183,-2.1833,-2.1834,-2.1836,-2.1837,-2.1836,-2.1838,-2.184,-2.1841,-2.1843,-2.1844,-2.1844,-2.1844,-2.1842,-2.1842,-2.1843,-2.1843,-2.1843,-2.1842,-2.1833,-2.1842,-2.1842,-2.1842,-2.1842,-2.1842,-2.1834,-2.1837,-2.1839,-2.1841,-2.1842,-2.1843,-2.1845,-2.1845,-2.1847,-2.1848,-2.1847,-2.1849,-2.1849,-2.185,-2.1849,-2.185,-2.1849,-2.185,-2.185,-2.185,-2.185,-2.1843,-2.185,-2.185,-2.185,-2.185,-2.185,0,-2.1846,-2.1846,-2.1849,-2.1851,-2.1852,-2.185,-2.1851,-2.1852,-2.1854,-2.1854,-2.1856,-2.1857,-2.1858,-2.1856,-2.1857,-2.1857,-2.1856,-2.1857,-2.1857,-2.1857,-2.1852,-2.1851,-2.1858,-2.1858,-2.1858,-2.1858,-2.1858,-2.1858,-2.1852,-2.1857,-2.1856,-2.186,-2.186,-2.1862,-2.1862,-2.1863,-2.1863,-2.1864,-2.1865,-2.1864,-2.1863,-2.1863,-2.1863,-2.1863,-2.1862,-2.1864,-2.1863,-2.1858,-2.1857,-2.1857,-2.1856,-2.1864,-2.1864,-2.1868,-2.1868,-2.1868]}]]